Regional Weather Roundup
Issued by NWS

Home | Current Version | Previous Version | Text Only | Print | Product List | Glossary Off
Versions: 1 2 3 4 5 6 7 8 9 10 11 12 13 14 15 16 17 18 19 20 21 22 23 24 25 26 27 28 29 30 31 32 33 34 35 36 37 38 39 40 41 42 43 44 45 46 47 48 49 50

263
ASUS43 KLMK 121510
RWRKY
KENTUCKY REGIONAL WEATHER ROUNDUP
NATIONAL WEATHER SERVICE LOUISVILLE KY
1000 AM EST TUE DEC 12 2017

NOTE "FAIR" INDICATES FEW OR NO CLOUDS BELOW 12,000 FEET
WITH NO SIGNIFICANT WEATHER AND/OR OBSTRUCTIONS TO VISIBILITY.

KYZ001>023-026-027-061>063-070>075-121600-
WESTERN AND SOUTH CENTRAL KENTUCKY

CITY           SKY/WX    TMP DP  RH WIND       PRES   REMARKS
PADUCAH        SUNNY     36  21  54 N17G28    30.18R WCI  26
HENDERSON      PTSUNNY   32  19  58 NW16G24   30.14R WCI  21
OWENSBORO      CLOUDY    34  21  59 NW22      30.10R WCI  22
HOPKINSVILLE   CLOUDY    37  23  55 NW13G26   30.10R WCI  29
BOWLING GREEN  CLOUDY    37  27  67 NW10G22   30.07R WCI  30
GLASGOW        CLOUDY    35  26  69 N15G21    30.04R WCI  25
$$

KYZ024-025-028>034-038-045-046-053-121600-
NORTH CENTRAL KENTUCKY

CITY           SKY/WX    TMP DP  RH WIND       PRES   REMARKS
LOUISVILLE/SDF PTSUNNY   35  17  47 W23G32    30.01R WCI  23
LOUISVILLE/LOU CLOUDY    34  20  56 NW14G28   30.01R WCI  25
FORT KNOX      PTSUNNY   33  17  50 NW14      30.01R WCI  24
$$

KYZ035>037-039>044-047>052-055>060-089>105-121600-
NORTHEAST KENTUCKY

CITY           SKY/WX    TMP DP  RH WIND       PRES   REMARKS
LEXINGTON      CLOUDY    32  22  66 NW14G23   29.95R WCI  22
COVINGTON      PTSUNNY   28  22  78 NW24G31   29.94R WCI  14
FRANKFORT      CLOUDY    32  19  58 NW9       29.96R WCI  24
$$

KYZ054-064>069-076>088-106>120-121600-
SOUTHEAST KENTUCKY

CITY           SKY/WX    TMP DP  RH WIND       PRES   REMARKS
JACKSON        LGT SNOW  34  29  82 NW15G32   29.86R WCI  24
LONDON         LGT RAIN  34  29  82 NW16G30   29.91R WCI  24
SOMERSET       LGT RAIN  32  30  93 NW9       29.98R WCI  24
MIDDLESBORO    LGT RAIN  39  32  75 NW9G23    29.89R WCI  33
MONTICELLO     CLOUDY    36  28  73 NW17G26   30.00R WCI  26
$$





USA.gov is the U.S. government's official web portal to all federal, state and local government web resources and services.